| time (UTC) | temp C | wind direction | speed KPH | gust KPH | rain 1hr cm | rain 24hr cm | rain mn cm | humidity % | barometer mb |
| 20260507223341 | 11 | 157 | 0.0 | 0.0 | 0.00 | 0.08 | 0.00 | 88 | 1013.8 |
| 20260507221834 | 11 | 157 | 0.0 | 3.2 | 0.00 | 0.08 | 0.00 | 87 | 1013.7 |
| 20260507220334 | 11 | 157 | 0.0 | 1.6 | 0.00 | 0.08 | 0.00 | 86 | 1013.6 |
| 20260507214830 | 12 | 157 | 1.6 | 3.2 | 0.00 | 0.08 | 0.08 | 86 | 1013.6 |
| 20260507213346 | 12 | 157 | 0.0 | 3.2 | 0.00 | 0.08 | 0.08 | 86 | 1013.4 |
| 20260507211843 | 12 | 157 | 0.0 | 1.6 | 0.00 | 0.08 | 0.08 | 85 | 1013.3 |
| 20260507210338 | 12 | 157 | 1.6 | 4.8 | 0.00 | 0.08 | 0.08 | 85 | 1013.4 |
| 20260507204846 | 13 | 211 | 0.0 | 3.2 | 0.00 | 0.08 | 0.08 | 84 | 1013.3 |
| 20260507203336 | 13 | 211 | 1.6 | 4.8 | 0.00 | 0.08 | 0.08 | 82 | 1013.1 |
| 20260507201847 | 13 | 211 | 0.0 | 0.0 | 0.00 | 0.08 | 0.08 | 80 | 1013.1 |
| 20260507200341 | 14 | 211 | 0.0 | 0.0 | 0.00 | 0.08 | 0.08 | 80 | 1012.8 |
| 20260507194837 | 15 | 211 | 0.0 | 1.6 | 0.00 | 0.08 | 0.08 | 78 | 1012.6 |
| 20260507193330 | 15 | 211 | 0.0 | 0.0 | 0.00 | 0.08 | 0.08 | 75 | 1012.4 |
| 20260507191843 | 16 | 211 | 0.0 | 0.0 | 0.00 | 0.08 | 0.08 | 73 | 1012.1 |
| 20260507190339 | 16 | 211 | 0.0 | 0.0 | 0.00 | 0.08 | 0.08 | 69 | 1011.9 |
| 20260507184829 | 16 | 211 | 0.0 | 0.0 | 0.00 | 0.08 | 0.08 | 66 | 1011.9 |
| 20260507183338 | 17 | 211 | 0.0 | 0.0 | 0.00 | 0.91 | 0.08 | 64 | 1011.7 |
| 20260507181829 | 18 | 211 | 0.0 | 1.6 | 0.00 | 0.91 | 0.08 | 62 | 1011.7 |
| 20260507180343 | 18 | 198 | 0.0 | 3.2 | 0.00 | 0.91 | 0.08 | 59 | 1011.5 |
| 20260507174844 | 19 | 240 | 4.8 | 6.4 | 0.00 | 0.91 | 0.08 | 56 | 1011.3 |
| 20260507173338 | 19 | 238 | 6.4 | 11.3 | 0.00 | 0.91 | 0.08 | 54 | 1011.2 |
| 20260507171834 | 20 | 252 | 3.2 | 11.3 | 0.00 | 0.91 | 0.08 | 53 | 1011.1 |
| 20260507170329 | 20 | 240 | 6.4 | 11.3 | 0.00 | 0.91 | 0.08 | 54 | 1011.1 |
| 20260507164842 | 20 | 235 | 0.0 | 11.3 | 0.00 | 0.91 | 0.08 | 52 | 1010.9 |
| 20260507163332 | 20 | 233 | 3.2 | 8.0 | 0.00 | 0.91 | 0.08 | 50 | 1011.0 |
| 20260507161848 | 21 | 215 | 4.8 | 6.4 | 0.00 | 0.91 | 0.08 | 51 | 1010.8 |
| 20260507160336 | 21 | 325 | 6.4 | 8.0 | 0.00 | 0.91 | 0.08 | 49 | 1010.9 |
| 20260507154837 | 21 | 189 | 3.2 | 11.3 | 0.00 | 0.91 | 0.08 | 50 | 1010.9 |
| 20260507153524 | 21 | 247 | 8.0 | 14.5 | 0.00 | 0.91 | 0.08 | 52 | 1010.9 |
| 20260507153330 | 21 | 247 | 8.0 | 14.5 | 0.00 | 0.91 | 0.08 | 52 | 1010.9 |
| 20260507152628 | 20 | 244 | 1.6 | 6.4 | 0.00 | 0.91 | 0.08 | 54 | 1010.9 |
| 20260507151844 | 20 | 244 | 1.6 | 6.4 | 0.00 | 0.91 | 0.08 | 54 | 1010.9 |
| 20260507150340 | 21 | 250 | 6.4 | 9.7 | 0.00 | 0.91 | 0.08 | 48 | 1011.1 |
| 20260507144836 | 20 | 252 | 0.0 | 8.0 | 0.00 | 0.91 | 0.08 | 53 | 1011.1 |
| 20260507143334 | 20 | 248 | 1.6 | 9.7 | 0.00 | 2.41 | 0.08 | 52 | 1011.1 |
| 20260507141827 | 20 | 200 | 8.0 | 11.3 | 0.00 | 2.41 | 0.08 | 53 | 1011.2 |
| 20260507140342 | 20 | 245 | 4.8 | 11.3 | 0.00 | 2.41 | 0.08 | 53 | 1011.3 |
| 20260507134834 | 20 | 325 | 9.7 | 16.1 | 0.00 | 2.41 | 0.08 | 54 | 1011.4 |
| 20260507133334 | 20 | 242 | 6.4 | 16.1 | 0.00 | 3.48 | 0.08 | 58 | 1011.5 |
| 20260507131844 | 19 | 320 | 0.0 | 9.7 | 0.00 | 3.48 | 0.08 | 57 | 1011.6 |
| 20260507130342 | 20 | 319 | 3.2 | 14.5 | 0.00 | 3.48 | 0.08 | 55 | 1011.8 |
| 20260507124839 | 20 | 265 | 6.4 | 14.5 | 0.00 | 3.48 | 0.08 | 58 | 1011.8 |
| 20260507123330 | 19 | 5 | 8.0 | 11.3 | 0.00 | 3.51 | 0.08 | 60 | 1012.0 |
| 20260507121842 | 19 | 300 | 6.4 | 12.9 | 0.00 | 3.51 | 0.08 | 61 | 1012.0 |
| 20260507120341 | 19 | 290 | 4.8 | 11.3 | 0.00 | 3.51 | 0.08 | 60 | 1011.9 |
| 20260507114839 | 18 | 232 | 1.6 | 9.7 | 0.00 | 3.51 | 0.08 | 62 | 1012.1 |
| 20260507113332 | 19 | 197 | 3.2 | 11.3 | 0.00 | 3.53 | 0.08 | 62 | 1012.2 |
| 20260507111845 | 18 | 251 | 3.2 | 17.7 | 0.00 | 3.53 | 0.08 | 60 | 1012.4 |
| 20260507110341 | 18 | 240 | 9.7 | 16.1 | 0.00 | 3.53 | 0.08 | 69 | 1012.5 |
| 20260507104839 | 17 | 222 | 6.4 | 9.7 | 0.00 | 3.53 | 0.08 | 69 | 1012.7 |
| 20260507103331 | 17 | 231 | 4.8 | 11.3 | 0.00 | 3.53 | 0.08 | 67 | 1012.8 |
| 20260507101848 | 17 | 218 | 8.0 | 14.5 | 0.00 | 3.53 | 0.08 | 70 | 1012.8 |
| 20260507100338 | 16 | 311 | 0.0 | 4.8 | 0.00 | 3.53 | 0.08 | 74 | 1013.0 |
| 20260507094829 | 16 | 257 | 0.0 | 6.4 | 0.00 | 3.53 | 0.08 | 72 | 1013.0 |
| 20260507093344 | 16 | 261 | 3.2 | 9.7 | 0.00 | 3.53 | 0.08 | 73 | 1013.0 |
| 20260507091838 | 16 | 194 | 0.0 | 14.5 | 0.00 | 3.53 | 0.08 | 73 | 1012.9 |
| 20260507090336 | 15 | 294 | 1.6 | 4.8 | 0.00 | 3.53 | 0.08 | 76 | 1012.9 |
| 20260507084832 | 15 | 119 | 3.2 | 6.4 | 0.00 | 3.53 | 0.08 | 77 | 1012.9 |
| 20260507083329 | 15 | 218 | 0.0 | 4.8 | 0.00 | 3.71 | 0.08 | 82 | 1012.8 |
| 20260507081842 | 15 | 217 | 0.0 | 4.8 | 0.00 | 3.71 | 0.08 | 81 | 1012.8 |
| 20260507080337 | 15 | 316 | 0.0 | 8.0 | 0.00 | 3.71 | 0.08 | 82 | 1012.7 |
| 20260507074831 | 14 | 56 | 0.0 | 0.0 | 0.00 | 3.71 | 0.08 | 83 | 1012.6 |
| 20260507073340 | 13 | 56 | 0.0 | 4.8 | 0.00 | 3.86 | 0.08 | 83 | 1012.5 |
| 20260507071836 | 13 | 71 | 1.6 | 4.8 | 0.00 | 3.86 | 0.08 | 83 | 1012.5 |
| 20260507070327 | 13 | 93 | 6.4 | 11.3 | 0.00 | 3.86 | 0.08 | 83 | 1012.5 |
| 20260507064835 | 13 | 61 | 3.2 | 11.3 | 0.00 | 3.86 | 0.08 | 84 | 1012.2 |
| 20260507063336 | 12 | 92 | 4.8 | 9.7 | 0.00 | 3.86 | 0.08 | 88 | 1012.2 |
| 20260507061829 | 12 | 50 | 4.8 | 9.7 | 0.00 | 3.86 | 0.08 | 89 | 1012.0 |
| 20260507060342 | 11 | 34 | 4.8 | 8.0 | 0.00 | 3.86 | 0.08 | 89 | 1012.0 |
| 20260507054835 | 11 | 35 | 3.2 | 11.3 | 0.00 | 3.86 | 0.08 | 89 | 1011.9 |
| 20260507053327 | 11 | 34 | 4.8 | 8.0 | 0.00 | 3.91 | 0.08 | 90 | 1011.8 |
| 20260507051843 | 11 | 76 | 1.6 | 6.4 | 0.00 | 3.91 | 0.08 | 90 | 1011.6 |
| 20260507050342 | 11 | 74 | 1.6 | 4.8 | 0.03 | 3.91 | 0.08 | 90 | 1011.4 |
| 20260507044836 | 10 | 78 | 1.6 | 14.5 | 0.03 | 3.91 | 0.08 | 90 | 1011.2 |
| 20260507043336 | 10 | 78 | 6.4 | 9.7 | 0.03 | 3.96 | 0.08 | 90 | 1011.0 |
| 20260507041832 | 10 | 77 | 3.2 | 6.4 | 0.05 | 3.96 | 0.08 | 90 | 1011.0 |
| 20260507040326 | 10 | 84 | 4.8 | 8.0 | 0.08 | 3.96 | 0.08 | 89 | 1011.0 |
| 20260507034843 | 11 | 72 | 4.8 | 11.3 | 0.05 | 3.94 | 0.05 | 89 | 1010.8 |
| 20260507033336 | 11 | 84 | 8.0 | 19.3 | 0.05 | 3.99 | 0.05 | 89 | 1010.8 |
| 20260507031829 | 11 | 65 | 4.8 | 11.3 | 0.03 | 3.96 | 0.03 | 88 | 1010.9 |
| 20260507030341 | 11 | 73 | 4.8 | 17.7 | 0.00 | 3.94 | 0.00 | 88 | 1010.9 |
| 20260507024833 | 11 | 44 | 11.3 | 19.3 | 0.00 | 3.94 | 0.00 | 88 | 1010.7 |
| 20260507023324 | 11 | 60 | 8.0 | 19.3 | 0.00 | 4.01 | 0.00 | 88 | 1010.7 |
| 20260507021842 | 11 | 82 | 9.7 | 24.1 | 0.00 | 4.01 | 0.00 | 89 | 1010.7 |
| 20260507020333 | 11 | 77 | 8.0 | 17.7 | 0.00 | 4.01 | 0.00 | 90 | 1010.8 |
| 20260507014827 | 11 | 70 | 8.0 | 17.7 | 0.00 | 4.01 | 0.00 | 91 | 1010.7 |
| 20260507013345 | 11 | 53 | 3.2 | 8.0 | 0.00 | 4.29 | 0.00 | 90 | 1010.8 |
| 20260507011837 | 11 | 80 | 3.2 | 4.8 | 0.00 | 4.29 | 0.00 | 90 | 1010.7 |
| 20260507010331 | 11 | 54 | 1.6 | 6.4 | 0.00 | 4.29 | 0.00 | 90 | 1010.7 |
| 20260507004829 | 11 | 46 | 3.2 | 8.0 | 0.00 | 4.29 | 0.00 | 89 | 1010.6 |
| 20260507003342 | 11 | 9 | 1.6 | 6.4 | 0.00 | 4.29 | 0.00 | 89 | 1010.5 |
| 20260507001839 | 11 | 350 | 4.8 | 17.7 | 0.00 | 4.29 | 0.00 | 88 | 1010.5 |
| 20260507000336 | 11 | 94 | 3.2 | 17.7 | 0.00 | 4.29 | 0.00 | 89 | 1010.3 |
| 20260506234829 | 11 | 41 | 11.3 | 20.9 | 0.00 | 4.29 | 0.00 | 89 | 1010.3 |
| 20260506233324 | 11 | 51 | 8.0 | 17.7 | 0.00 | 4.29 | 0.00 | 90 | 1010.4 |
| 20260506231842 | 11 | 26 | 6.4 | 20.9 | 0.00 | 4.29 | 0.00 | 90 | 1010.5 |
| 20260506230345 | 11 | 67 | 8.0 | 17.7 | 0.00 | 4.29 | 0.00 | 90 | 1010.4 |
| 20260506224838 | 11 | 85 | 6.4 | 14.5 | 0.00 | 4.29 | 0.00 | 90 | 1010.3 |